Flight Track Log - Related Links

Times and Time Zones

All times are in EDT time to prevent confusion due to time zone crossing. See the SWA484 flight status page for this flight to view local times or setup timezone preferences in your user account.

Time Position Orientation Groundspeed Altitude Reporting Facility
EDT Latitude Longitude Course Direction KTS MPH feet Rate Location/Type
Tue 07:33:20 PM 33.4333 -112.0333 248° West 144 166 2,300  Level Phoenix TRACON
Tue 07:34:20 PM 33.4167 -112.0833 248° West 217 250 4,000 2,500 Climbing Phoenix TRACON
Tue 07:35:20 PM 33.3833 -112.1500 239° Southwest 217 250 7,300 2,835 Climbing Phoenix TRACON
Tue 07:35:51 PM 33.3642 -112.1422 161° South 227 261 8,300 2,152 Climbing Albuquerque Center
Tue 07:36:52 PM 33.3519 -112.0583 100° East 270 311 10,600 1,918 Climbing Albuquerque Center
Tue 07:37:53 PM 33.3422 -111.9472 96° East 342 394 12,200 2,049 Climbing Albuquerque Center
Tue 07:38:55 PM 33.3325 -111.8289 96° East 357 411 14,800 2,585 Climbing Albuquerque Center
Tue 07:39:56 PM 33.3200 -111.6783 96° East 380 437 17,500 2,585 Climbing Albuquerque Center
Tue 07:40:58 PM 33.3011 -111.5475 100° East 399 459 20,100 1,951 Climbing Albuquerque Center
Tue 07:41:59 PM 33.2619 -111.4239 111° Southeast 398 458 21,500 1,659 Climbing Albuquerque Center
Tue 07:43:01 PM 33.2219 -111.2911 110° East 423 487 23,500 1,854 Climbing Albuquerque Center
Tue 07:44:02 PM 33.1839 -111.1600 109° East 423 487 25,300 1,463 Climbing Albuquerque Center
Tue 07:45:04 PM 33.1422 -111.0247 110° East 432 497 26,500 1,403 Climbing Albuquerque Center
Tue 07:46:06 PM 33.0925 -110.8578 110° East 442 509 28,200 1,366 Climbing Albuquerque Center
Tue 07:47:07 PM 33.0506 -110.7147 109° East 454 522 29,300 976 Climbing Albuquerque Center
Tue 07:48:09 PM 33.0075 -110.5733 110° East 463 533 30,200 1,220 Climbing Albuquerque Center
Tue 07:49:10 PM 32.9614 -110.4272 111° Southeast 469 540 31,800 1,317 Climbing Albuquerque Center
Tue 07:50:12 PM 32.9178 -110.2833 110° East 468 539 32,900 927 Climbing Albuquerque Center
Tue 07:51:13 PM 32.8717 -110.1386 111° Southeast 468 539 33,700 927 Climbing Albuquerque Center
Tue 07:52:15 PM 32.8256 -109.9925 111° Southeast 469 540 34,800 634 Climbing Albuquerque Center
Tue 07:53:16 PM 32.7717 -109.8178 110° East 470 541 35,000 98 Climbing Albuquerque Center
Tue 07:54:18 PM 32.7253 -109.6714 111° Southeast 471 542 35,000  Level Albuquerque Center
Tue 07:55:19 PM 32.6789 -109.5233 110° East 479 551 35,000  Level Albuquerque Center
Tue 07:56:21 PM 32.6314 -109.3789 111° Southeast 481 554 35,000  Level Albuquerque Center
Tue 07:57:22 PM 32.5864 -109.2350 110° East 476 548 35,000  Level Albuquerque Center
Tue 07:58:24 PM 32.5403 -109.0922 111° Southeast 471 542 35,000  Level Albuquerque Center
Tue 07:59:25 PM 32.4847 -108.9181 111° Southeast 472 543 35,000  Level Albuquerque Center
Tue 08:00:27 PM 32.4383 -108.7728 111° Southeast 474 545 35,000 -488 Level Albuquerque Center
Tue 08:01:28 PM 32.3892 -108.6253 112° Southeast 480 552 34,000 -927 Descending Albuquerque Center
Tue 08:02:30 PM 32.3425 -108.4781 111° Southeast 482 555 33,100 -484 Descending Albuquerque Center
Tue 08:03:32 PM 32.2969 -108.3406 111° Southeast 480 552 33,000 -49 Descending Albuquerque Center
Tue 08:04:33 PM 32.2569 -108.1603 105° East 480 552 33,000  Level Albuquerque Center
Tue 08:05:35 PM 32.2406 -108.0039 97° East 480 552 33,000 -49 Level Albuquerque Center
Tue 08:06:36 PM 32.2233 -107.8483 97° East 480 552 32,900 -2,195 Descending Albuquerque Center
Tue 08:07:38 PM 32.2050 -107.6919 98° East 481 554 28,500 -3,484 Descending Albuquerque Center
Tue 08:08:40 PM 32.1867 -107.5322 98° East 492 566 25,700 -2,634 Descending Albuquerque Center
Tue 08:09:41 PM 32.1694 -107.3803 98° East 484 557 23,100 -2,667 Descending Albuquerque Center
Tue 08:10:28 PM 32.1531 -107.2503 98° East 417 480 20,900 -2,613 Descending Albuquerque Center
Tue 08:10:43 PM 32.1503 -107.2181 96° East 431 496 20,400 -2,000 Descending Albuquerque Center
Tue 08:11:10 PM 32.1450 -107.1672 97° East 392 451 19,500 -2,129 Descending Albuquerque Center
Tue 08:11:45 PM 32.1353 -107.0897 98° East 408 470 18,200 -2,459 Descending Albuquerque Center
Tue 08:12:11 PM 32.1275 -107.0311 99° East 391 450 17,000 -2,262 Descending Albuquerque Center
Tue 08:12:46 PM 32.1189 -106.9658 99° East 392 451 15,900 -2,200 Descending Albuquerque Center
Tue 08:13:11 PM 32.1061 -106.9086 105° East 381 438 14,800 -2,032 Descending Albuquerque Center
Tue 08:13:48 PM 32.0944 -106.8475 103° East 379 436 13,800 -1,869 Descending Albuquerque Center
Tue 08:14:12 PM 32.0811 -106.7919 106° East 354 407 12,900 -1,742 Descending Albuquerque Center
Tue 08:14:50 PM 32.0689 -106.7394 105° East 345 397 12,000 -1,770 Descending Albuquerque Center
Tue 08:15:13 PM 32.0542 -106.6883 109° East 330 380 11,100 -1,672 Descending Albuquerque Center
Tue 08:15:51 PM 32.0431 -106.6383 105° East 327 376 10,300 -1,500 Descending Albuquerque Center
Tue 08:16:13 PM 32.0319 -106.5886 105° East 312 359 9,600 -2,226 Descending Albuquerque Center
Tue 08:16:53 PM 32.0261 -106.5164 95° East 317 365 8,000 -1,574 Descending Albuquerque Center
Tue 08:17:14 PM 32.0217 -106.4833 99° East 325 374 8,000 -387 Level Albuquerque Center
Tue 08:17:55 PM 32.0172 -106.4136 94° East 318 366 7,600 -800 Descending Albuquerque Center
Tue 08:18:14 PM 32.0122 -106.3831 101° East 299 344 7,200 -1,672 Descending Albuquerque Center
Tue 08:18:56 PM 32.0072 -106.3167 95° East 303 349 5,900 -1,180 Descending Albuquerque Center
Tue 08:19:15 PM 32.0025 -106.2828 99° East 304 350 6,000  Climbing Albuquerque Center
Tue 08:19:58 PM 31.9686 -106.2383 132° Southeast 282 325 5,900  Descending Albuquerque Center
Tue 08:20:16 PM 31.9478 -106.2289 159° South 242 278 6,000 97 Climbing Albuquerque Center
Tue 08:21:00 PM 31.9142 -106.2411 197° South 207 238 6,000  Level Albuquerque Center
Tue 08:21:16 PM 31.9022 -106.2603 234° Southwest 164 189 6,000 -197 Level Albuquerque Center
Tue 08:22:01 PM 31.8842 -106.2844 229° Southwest 150 173 5,800 -492 Descending Albuquerque Center
Tue 08:22:17 PM 31.8764 -106.2944 228° Southwest 127 146 5,500 -774 Descending Albuquerque Center
Tue 08:23:03 PM 31.8572 -106.3214 230° Southwest 142 163 5,000 -700 Descending Albuquerque Center
Tue 08:23:17 PM 31.8511 -106.3306 232° Southwest 136 157 4,800 -677 Descending Albuquerque Center
Tue 08:24:05 PM 31.8317 -106.3569 229° Southwest 142 163 4,300 -625 Descending Albuquerque Center
Tue 08:26:00 PM 31.8000 -106.3667 90° East  Level FlightAware Approximate
Tue 08:33:00 PM 31.8072 -106.3764 90° East  Level Estimated
Tue 08:34:00 PM 31.8072 -106.3764 90° East  Level Estimated
Tue 08:35:00 PM 31.8072 -106.3764 90° East  Level Estimated

Login

Don't have an account? Register now (free) for customized features, flight alerts, and more!